sat.trackr.live / text

‹ back to catalog

STARLINK-35369

NORAD 68705 · 2026-081G

PAYLOAD ACTIVE UNKNOWN

§ Identity

Operator
Country
US
Launch date
2026-04-14
Launch site
AFETR
Launch vehicle
Mass (kg)
RCS (m²)

Purposes: comms

External: N2YO · Heavens-Above · Gunter

§ Orbital elements

Epoch: 2026-09-18T03:24:55.329120Z

Period
93.85 min
Inclination
53.1587°
Eccentricity
0.0001220
Mean motion
15.34396894 rev/d
Perigee alt
461.9 km
Apogee alt
463.5 km
Semi-major
6,840.8 km
B*
2.9365e-4
RAAN
216.9496°
Arg perigee
84.3101°
Mean anomaly
275.8040°
Rev number
2,425

§ Raw data

STARLINK-353691 68705U 26081G   26261.14230705  .00009557  00000+0  29365-3 0  99952 68705  53.1587 216.9496 0001220  84.3101 275.8040 15.34396894 24257

JSON: /api/v1/satellites/68705 · /tle

For live sub-satellite position, see the globe view (requires WebGL).

§ Visibility from observer

Set your observer location to see the next 7 days of passes ≥ 10°. The values pass through the URL so the page stays shareable.

No JS? Fill the form by hand. The geolocation button needs JavaScript.